EW7049 Weather Reports


time (UTC)temp
C
wind
direction
speed
KPH
gust
KPH
rain 1hr
cm
rain 24hr
cm
rain mn
cm
humidity
%
barometer
mb
20260906113002 21 12 0.0 0.0 0.00 0.15 0.00 99 1010.1
20260906111501 21 12 0.0 0.0 0.00 0.15 0.00 99 1010.1
20260906110002 21 12 0.0 0.0 0.00 0.15 0.00 99 1009.9
20260906104501 21 12 0.0 0.0 0.00 0.15 0.00 99 1009.6
20260906103002 21 327 0.0 0.0 0.00 0.15 0.00 98 1009.6
20260906101502 21 45 0.0 0.0 0.00 0.15 0.00 98 1009.7
20260906100003 21 45 0.0 0.0 0.00 0.15 0.00 98 1009.5
20260906094459 22 45 0.0 0.0 0.00 0.15 0.00 97 1009.5
20260906093003 22 35 0.0 0.0 0.00 0.15 0.00 97 1009.2
20260906091502 22 35 0.0 0.0 0.00 0.15 0.00 97 1009.3
20260906084502 22 34 0.0 0.0 0.00 0.15 0.00 98 1009.4
20260906083003 22 250 0.0 0.0 0.00 0.15 0.00 99 1009.5
20260906080003 23 58 0.0 0.0 0.00 0.15 0.00 100 1009.6
20260906074501 23 103 0.0 0.0 0.00 0.15 0.00 100 1009.7
20260906073000 23 311 0.0 0.0 0.00 0.15 0.00 100 1009.7
20260906071500 23 311 0.0 0.0 0.00 0.15 0.00 100 1009.9
20260906064500 23 38 0.0 0.0 0.00 0.15 0.00 100 1009.4
20260906061501 23 38 0.0 0.0 0.00 0.15 0.00 100 1009.9
20260906060003 23 38 0.0 0.0 0.00 0.15 0.00 100 1009.6
20260906053001 23 38 0.0 0.0 0.00 0.15 0.00 100 1010.0
20260906051502 23 38 0.0 0.0 0.00 0.15 0.00 100 1009.9
20260906050004 23 273 0.0 0.0 0.00 0.15 0.00 100 1009.8
20260906044502 23 273 0.0 0.0 0.00 0.15 0.00 100 1010.0
20260906041502 23 273 0.0 0.0 0.00 0.15 0.00 100 1010.3
20260906034501 23 122 0.0 0.0 0.00 0.15 0.15 99 1010.4
20260906033002 23 122 0.0 0.0 0.00 0.15 0.15 99 1010.4
20260906031502 23 122 0.0 0.0 0.00 0.15 0.15 99 1010.1
20260906030006 23 122 0.0 0.0 0.00 0.15 0.15 98 1010.1
20260906024503 23 122 0.0 0.0 0.00 0.15 0.15 98 1010.0
20260906023003 23 122 0.0 0.0 0.00 0.15 0.15 97 1010.0
20260906021501 23 122 0.0 0.0 0.00 0.15 0.15 97 1009.6
20260906020002 23 122 0.0 0.0 0.00 0.15 0.15 97 1009.5
20260906014502 23 122 0.0 0.0 0.00 0.15 0.15 97 1009.5
20260906013004 24 122 0.0 0.0 0.00 0.15 0.15 96 1009.5
20260906011503 24 122 0.0 0.0 0.00 0.15 0.15 95 1009.5
20260906010003 24 122 0.0 0.0 0.00 0.15 0.15 94 1009.5
20260906004502 25 122 0.0 0.0 0.00 0.15 0.15 93 1009.5
20260906003003 25 122 0.0 0.0 0.00 0.15 0.15 91 1009.5
20260906001503 25 122 0.0 0.0 0.00 0.15 0.15 90 1009.5
20260906000002 25 122 0.0 0.0 0.00 0.15 0.15 87 1009.5
20260905234459 26 122 0.0 0.0 0.00 0.15 0.15 88 1009.5
20260905233001 26 122 0.0 0.0 0.00 0.15 0.15 86 1009.2
20260905231459 26 122 0.0 0.0 0.00 0.15 0.15 84 1009.3
20260905223000 26 246 0.0 0.0 0.00 0.15 0.15 82 1009.2
20260905221501 26 334 0.0 0.0 0.00 0.15 0.15 82 1009.2
20260905213003 25 273 1.6 3.2 0.00 0.15 0.15 85 1009.6
20260905211503 25 270 0.0 3.2 0.00 0.15 0.15 88 1009.7
20260905210005 25 297 0.0 1.6 0.00 0.15 0.15 90 1010.0
20260905203003 25 272 0.0 3.2 0.00 0.15 0.15 93 1010.1
20260905201502 25 209 0.0 3.2 0.00 0.15 0.15 92 1010.5
20260905194459 25 270 1.6 4.8 0.00 0.15 0.15 94 1011.0
20260905193002 25 270 1.6 4.8 0.00 0.15 0.15 93 1010.7
20260905191500 25 133 1.6 4.8 0.00 0.15 0.15 96 1011.0
20260905190002 25 43 1.6 6.4 0.15 0.15 0.15 96 1011.3
20260905184459 25 291 0.0 0.0 0.15 0.15 0.15 94 1011.6
20260905183000 25 199 1.6 4.8 0.15 0.15 0.15 91 1010.8
20260905181500 26 290 1.6 4.8 0.15 0.15 0.15 81 1011.0
20260905180001 28 152 1.6 4.8 0.00 0.00 0.00 65 1011.6
20260905174501 32 93 4.8 12.9 0.00 0.00 0.00 56 1011.5
20260905173003 33 188 1.6 3.2 0.00 0.00 0.00 59 1010.8
20260905171500 32 234 1.6 4.8 0.00 0.00 0.00 59 1011.2
20260905170004 32 258 3.2 6.4 0.00 0.00 0.00 64 1011.1
20260905161502 31 121 1.6 6.4 0.00 0.00 0.00 66 1012.0
20260905160002 29 279 0.0 1.6 0.00 0.00 0.00 73 1011.9
20260905154500 28 259 0.0 0.0 0.00 0.00 0.00 76 1011.8
20260905153000 28 104 0.0 0.0 0.00 0.00 0.00 77 1012.1
20260905151502 28 151 0.0 0.0 0.00 0.00 0.00 78 1012.2
20260905144503 27 259 0.0 0.0 0.00 0.00 0.00 81 1012.3
20260905143003 26 248 0.0 0.0 0.00 0.00 0.00 82 1012.5
20260905140004 25 86 0.0 0.0 0.00 0.00 0.00 91 1012.5
20260905134501 25 170 0.0 0.0 0.00 0.00 0.00 93 1012.6
20260905133003 24 159 0.0 0.0 0.00 0.00 0.00 96 1012.7
20260905131503 24 136 0.0 0.0 0.00 0.00 0.00 98 1012.8
20260905130003 23 136 0.0 0.0 0.00 0.00 0.00 99 1012.8
20260905124500 23 136 0.0 0.0 0.00 0.00 0.00 100 1012.7
20260905123002 23 136 0.0 0.0 0.00 0.00 0.00 100 1012.7
20260905121502 22 136 0.0 0.0 0.00 0.00 0.00 100 1012.6
20260905120002 22 136 0.0 0.0 0.00 0.00 0.00 100 1012.3
20260905114500 22 136 0.0 0.0 0.00 0.00 0.00 100 1012.2